sat.trackr.live / text

‹ back to catalog

STARLINK-5429

NORAD 54801 · 2022-175AV

PAYLOAD ACTIVE UNKNOWN

§ Identity

Operator
Country
US
Launch date
2022-12-17
Launch site
AFETR
Launch vehicle
Mass (kg)
RCS (m²)

Purposes: comms

External: N2YO · Heavens-Above · Gunter

§ Orbital elements

Epoch: 2026-05-25T04:28:34.216032Z

Period
95.44 min
Inclination
53.2125°
Eccentricity
0.0001364
Mean motion
15.08852525 rev/d
Perigee alt
538.8 km
Apogee alt
540.6 km
Semi-major
6,917.8 km
B*
-3.4358e-4
RAAN
60.2715°
Arg perigee
96.5752°
Mean anomaly
263.5395°
Rev number
19,147

§ Raw data

STARLINK-54291 54801U 22175AV  26145.18650713 -.00005754  00000+0 -34358-3 0  99922 54801  53.2125  60.2715 0001364  96.5752 263.5395 15.08852525191473

JSON: /api/v1/satellites/54801 · /tle

For live sub-satellite position, see the globe view (requires WebGL).

§ Visibility from observer

Set your observer location to see the next 7 days of passes ≥ 10°. The values pass through the URL so the page stays shareable.

No JS? Fill the form by hand. The geolocation button needs JavaScript.